This is the latest recevied weather packets stored in our database for station/object KC5DAQ-29. If no packets are shown the sender has not sent any weather packets the latest 1 day(s).
| Time | Temp. | Humidity | Pressure | Rain* | Wind** | Luminosity | Snow |
|---|---|---|---|---|---|---|---|
| 1778030581 | 26.67° C | 100% | 1004.8 hPa | 0 mm | 0.89 m/s, 121° | 0 W/m² | - |
| 1778030522 | 26.67° C | 100% | 1004.7 hPa | 0 mm | 0.89 m/s, 157° | 0 W/m² | - |
| 1778030463 | 26.67° C | 100% | 1004.8 hPa | 0 mm | 1.79 m/s, 148° | 0 W/m² | - |
| 1778030402 | 26.11° C | 100% | 1004.7 hPa | 0 mm | 0.89 m/s, 149° | 0 W/m² | - |
| 1778030343 | 26.11° C | 100% | 1004.8 hPa | 0 mm | 1.34 m/s, 165° | 0 W/m² | - |
| 1778030283 | 26.67° C | 100% | 1004.7 hPa | 0 mm | 1.34 m/s, 104° | 0 W/m² | - |
| 1778030222 | 26.67° C | 100% | 1004.8 hPa | 0 mm | 0.89 m/s, 176° | 0 W/m² | - |
| 1778030162 | 26.67° C | 100% | 1004.8 hPa | 0 mm | 1.34 m/s, 166° | 0 W/m² | - |
| 1778030104 | 26.67° C | 100% | 1004.8 hPa | 0 mm | 1.34 m/s, 134° | 0 W/m² | - |
| 1778030044 | 26.67° C | 100% | 1004.8 hPa | 0 mm | 1.34 m/s, 155° | 0 W/m² | - |
| 1778029982 | 26.67° C | 100% | 1004.8 hPa | 0 mm | 0.89 m/s, 169° | 0 W/m² | - |
| 1778029923 | 26.67° C | 100% | 1004.7 hPa | 0 mm | 0.89 m/s, 165° | 0 W/m² | - |
| 1778029861 | 26.67° C | 100% | 1004.7 hPa | 0 mm | 1.34 m/s, 144° | 0 W/m² | - |
| 1778029805 | 27.22° C | 100% | 1004.7 hPa | 0 mm | 1.79 m/s, 162° | 0 W/m² | - |
| 1778029742 | 27.22° C | 100% | 1004.7 hPa | 0 mm | 1.79 m/s, 159° | 0 W/m² | - |
| 1778029683 | 27.22° C | 100% | 1004.7 hPa | 0 mm | 1.34 m/s, 128° | 0 W/m² | - |
| 1778029624 | 27.22° C | 100% | 1004.7 hPa | 0 mm | 0.89 m/s, 182° | 0 W/m² | - |
| 1778029563 | 27.22° C | 100% | 1004.7 hPa | 0 mm | 0.45 m/s, 159° | 0 W/m² | - |
| 1778029503 | 27.22° C | 100% | 1004.7 hPa | 0 mm | 0.89 m/s, 158° | 0 W/m² | - |
| 1778029444 | 27.22° C | 100% | 1004.6 hPa | 0 mm | 1.34 m/s, 152° | 0 W/m² | - |
| 1778029382 | 27.22° C | 100% | 1004.7 hPa | 0 mm | 1.34 m/s, 158° | 0 W/m² | - |
| 1778029322 | 26.67° C | 100% | 1004.7 hPa | 0 mm | 0.89 m/s, 140° | 0 W/m² | - |
| 1778029263 | 26.67° C | 100% | 1004.7 hPa | 0 mm | 0.89 m/s, 148° | 0 W/m² | - |
| 1778029204 | 26.67° C | 100% | 1004.7 hPa | 0 mm | 0.45 m/s, 157° | 0 W/m² | - |
| 1778029144 | 26.67° C | 100% | 1004.6 hPa | 0 mm | 0.45 m/s, 162° | 0 W/m² | - |
* Rain latest hour (hover to see other rain measurements)
** Current wind speed in m/s (hover to see current wind gust speed)